Time,TemperatureF,DewpointF,PressureIn,WindDirection,WindDirectionDegrees,WindSpeedMPH,WindSpeedGustMPH,Humidity,HourlyPrecipIn,Conditions,Clouds,dailyrainin,SoftwareType,DateUTC
2013-08-07 00:01:00,52.0,50.0,-100.00,SE,125,16.0,27.0,94,-99.99,,,-99.99,,2013-08-07 08:01:00,
2013-08-07 00:11:00,52.0,50.0,-100.00,SE,125,16.0,27.0,94,-99.99,,,-99.99,,2013-08-07 08:11:00,
2013-08-07 00:20:00,52.0,50.0,-100.00,SE,140,17.0,31.0,93,-99.99,,,-99.99,,2013-08-07 08:20:00,
2013-08-07 00:32:00,52.0,51.0,-100.00,SE,135,12.0,30.0,94,-99.99,,,-99.99,,2013-08-07 08:32:00,
2013-08-07 00:44:00,52.0,51.0,-100.00,SE,135,12.0,30.0,94,-99.99,,,-99.99,,2013-08-07 08:44:00,
2013-08-07 00:52:00,52.0,50.0,-100.00,SE,140,17.0,31.0,93,-99.99,,,-99.99,,2013-08-07 08:52:00,
2013-08-07 01:01:00,52.0,50.0,-100.00,SE,140,17.0,31.0,93,-99.99,,,-99.99,,2013-08-07 09:01:00,
2013-08-07 01:11:00,52.0,50.0,-100.00,SE,140,17.0,31.0,93,-99.99,,,-99.99,,2013-08-07 09:11:00,
2013-08-07 01:20:00,52.0,50.0,-100.00,SSE,160,18.0,32.0,93,-99.99,,,-99.99,,2013-08-07 09:20:00,
2013-08-07 01:43:00,52.0,50.0,-100.00,SSE,150,13.0,36.0,93,-99.99,,,-99.99,,2013-08-07 09:43:00,
2013-08-07 02:01:00,52.0,50.0,-100.00,SSE,160,18.0,32.0,93,-99.99,,,-99.99,,2013-08-07 10:01:00,
2013-08-07 02:11:00,52.0,50.0,-100.00,SSE,160,18.0,32.0,93,-99.99,,,-99.99,,2013-08-07 10:11:00,
2013-08-07 02:32:00,51.0,50.0,-100.00,SSE,165,13.0,25.0,94,-99.99,,,-99.99,,2013-08-07 10:32:00,
2013-08-07 02:43:00,51.0,50.0,-100.00,SSE,165,13.0,25.0,94,-99.99,,,-99.99,,2013-08-07 10:43:00,
2013-08-07 03:01:00,52.0,50.0,-100.00,SSE,165,17.0,29.0,91,-99.99,,,-99.99,,2013-08-07 11:01:00,
2013-08-07 03:11:00,52.0,50.0,-100.00,SSE,165,17.0,29.0,91,-99.99,,,-99.99,,2013-08-07 11:11:00,
2013-08-07 03:32:00,52.0,50.0,-100.00,South,175,18.0,35.0,92,-99.99,,,-99.99,,2013-08-07 11:32:00,
2013-08-07 03:43:00,52.0,50.0,-100.00,South,175,18.0,35.0,92,-99.99,,,-99.99,,2013-08-07 11:43:00,
2013-08-07 04:02:00,51.0,50.0,-100.00,SE,145,14.0,21.0,95,-99.99,,,-99.99,,2013-08-07 12:02:00,
2013-08-07 04:11:00,51.0,50.0,-100.00,SE,145,14.0,21.0,95,-99.99,,,-99.99,,2013-08-07 12:11:00,
2013-08-07 04:20:00,52.0,50.0,-100.00,SSE,150,22.0,30.0,91,-99.99,,,-99.99,,2013-08-07 12:20:00,
2013-08-07 04:32:00,52.0,50.0,-100.00,SSE,150,20.0,37.0,93,-99.99,,,-99.99,,2013-08-07 12:32:00,
2013-08-07 04:43:00,52.0,50.0,-100.00,SSE,150,20.0,37.0,93,-99.99,,,-99.99,,2013-08-07 12:43:00,
2013-08-07 05:02:00,52.0,50.0,-100.00,SSE,150,22.0,30.0,91,-99.99,,,-99.99,,2013-08-07 13:02:00,
2013-08-07 05:11:00,52.0,50.0,-100.00,SSE,150,22.0,30.0,91,-99.99,,,-99.99,,2013-08-07 13:11:00,
2013-08-07 05:20:00,52.0,50.0,-100.00,SE,145,25.0,33.0,93,-99.99,,,-99.99,,2013-08-07 13:20:00,
2013-08-07 05:44:00,52.0,49.0,-100.00,SSE,160,22.0,36.0,90,-99.99,,,-99.99,,2013-08-07 13:44:00,
2013-08-07 05:52:00,52.0,50.0,-100.00,SE,145,25.0,33.0,93,-99.99,,,-99.99,,2013-08-07 13:52:00,
2013-08-07 06:01:00,52.0,50.0,-100.00,SE,145,25.0,33.0,93,-99.99,,,-99.99,,2013-08-07 14:01:00,
2013-08-07 06:11:00,52.0,50.0,-100.00,SE,145,25.0,33.0,93,-99.99,,,-99.99,,2013-08-07 14:11:00,
2013-08-07 06:43:00,52.0,50.0,-100.00,SE,145,16.0,35.0,93,-99.99,,,-99.99,,2013-08-07 14:43:00,
2013-08-07 07:02:00,52.0,50.0,-100.00,SE,140,19.0,27.0,93,-99.99,,,-99.99,,2013-08-07 15:02:00,
2013-08-07 07:12:00,52.0,50.0,-100.00,SE,140,19.0,27.0,93,-99.99,,,-99.99,,2013-08-07 15:12:00,
2013-08-07 07:20:00,52.0,50.0,-100.00,SE,130,10.0,20.0,93,-99.99,,,-99.99,,2013-08-07 15:20:00,
2013-08-07 07:33:00,52.0,50.0,-100.00,SE,140,14.0,26.0,93,-99.99,,,-99.99,,2013-08-07 15:33:00,
2013-08-07 07:43:00,52.0,50.0,-100.00,SE,140,14.0,26.0,93,-99.99,,,-99.99,,2013-08-07 15:43:00,
2013-08-07 08:02:00,52.0,50.0,-100.00,SE,130,10.0,20.0,93,-99.99,,,-99.99,,2013-08-07 16:02:00,
2013-08-07 08:11:00,52.0,50.0,-100.00,SE,130,10.0,20.0,93,-99.99,,,-99.99,,2013-08-07 16:11:00,
2013-08-07 08:33:00,51.0,50.0,-100.00,SSE,155,9.0,26.0,95,-99.99,,,-99.99,,2013-08-07 16:33:00,
2013-08-07 08:43:00,51.0,50.0,-100.00,SSE,155,9.0,26.0,95,-99.99,,,-99.99,,2013-08-07 16:43:00,
2013-08-07 08:52:00,51.0,50.0,-100.00,SE,135,11.0,16.0,96,-99.99,,,-99.99,,2013-08-07 16:52:00,
2013-08-07 09:01:00,51.0,50.0,-100.00,SE,135,11.0,16.0,96,-99.99,,,-99.99,,2013-08-07 17:01:00,
2013-08-07 09:11:00,51.0,50.0,-100.00,SE,135,11.0,16.0,96,-99.99,,,-99.99,,2013-08-07 17:11:00,
2013-08-07 09:33:00,51.0,50.0,-100.00,SE,140,9.0,15.0,96,-99.99,,,-99.99,,2013-08-07 17:33:00,
2013-08-07 09:43:00,51.0,50.0,-100.00,SE,140,9.0,15.0,96,-99.99,,,-99.99,,2013-08-07 17:43:00,
2013-08-07 09:52:00,52.0,51.0,-100.00,SSE,155,10.0,16.0,96,-99.99,,,-99.99,,2013-08-07 17:52:00,
2013-08-07 10:02:00,52.0,51.0,-100.00,SSE,155,10.0,16.0,96,-99.99,,,-99.99,,2013-08-07 18:02:00,
2013-08-07 10:11:00,52.0,51.0,-100.00,SSE,155,10.0,16.0,96,-99.99,,,-99.99,,2013-08-07 18:11:00,
2013-08-07 10:20:00,52.0,51.0,-100.00,SSE,150,7.0,15.0,95,-99.99,,,-99.99,,2013-08-07 18:20:00,
2013-08-07 10:32:00,52.0,51.0,-100.00,SSE,155,13.0,17.0,95,-99.99,,,-99.99,,2013-08-07 18:32:00,
2013-08-07 10:43:00,52.0,51.0,-100.00,SSE,155,13.0,17.0,95,-99.99,,,-99.99,,2013-08-07 18:43:00,
2013-08-07 11:01:00,52.0,51.0,-100.00,SSE,150,7.0,15.0,95,-99.99,,,-99.99,,2013-08-07 19:01:00,
2013-08-07 11:11:00,52.0,51.0,-100.00,SSE,150,7.0,15.0,95,-99.99,,,-99.99,,2013-08-07 19:11:00,
2013-08-07 11:20:00,52.0,51.0,-100.00,SE,130,11.0,16.0,96,-99.99,,,-99.99,,2013-08-07 19:20:00,
2013-08-07 11:44:00,51.0,50.0,-100.00,SE,130,7.0,14.0,96,-99.99,,,-99.99,,2013-08-07 19:44:00,
2013-08-07 12:02:00,52.0,51.0,-100.00,SE,130,11.0,16.0,96,-99.99,,,-99.99,,2013-08-07 20:02:00,
2013-08-07 12:11:00,52.0,51.0,-100.00,SE,130,11.0,16.0,96,-99.99,,,-99.99,,2013-08-07 20:11:00,
2013-08-07 12:20:00,52.0,51.0,-100.00,ESE,120,7.0,12.0,96,-99.99,,,-99.99,,2013-08-07 20:20:00,
2013-08-07 12:43:00,52.0,51.0,-100.00,SSE,150,6.0,8.0,96,-99.99,,,-99.99,,2013-08-07 20:43:00,
2013-08-07 13:01:00,52.0,51.0,-100.00,ESE,120,7.0,12.0,96,-99.99,,,-99.99,,2013-08-07 21:01:00,
2013-08-07 13:11:00,52.0,51.0,-100.00,ESE,120,7.0,12.0,96,-99.99,,,-99.99,,2013-08-07 21:11:00,
2013-08-07 13:43:00,52.0,51.0,-100.00,ESE,110,7.0,12.0,96,-99.99,,,-99.99,,2013-08-07 21:43:00,
2013-08-07 14:01:00,52.0,51.0,-100.00,SE,140,6.0,11.0,96,-99.99,,,-99.99,,2013-08-07 22:01:00,
2013-08-07 14:12:00,52.0,51.0,-100.00,SE,140,6.0,11.0,96,-99.99,,,-99.99,,2013-08-07 22:12:00,
2013-08-07 14:20:00,52.0,51.0,-100.00,SSE,155,7.0,11.0,96,-99.99,,,-99.99,,2013-08-07 22:20:00,
2013-08-07 14:32:00,52.0,51.0,-100.00,SSE,160,6.0,7.0,96,-99.99,,,-99.99,,2013-08-07 22:32:00,
2013-08-07 14:43:00,52.0,51.0,-100.00,SSE,160,6.0,7.0,96,-99.99,,,-99.99,,2013-08-07 22:43:00,
2013-08-07 15:01:00,52.0,51.0,-100.00,SSE,155,7.0,11.0,96,-99.99,,,-99.99,,2013-08-07 23:01:00,
2013-08-07 15:11:00,52.0,51.0,-100.00,SSE,155,7.0,11.0,96,-99.99,,,-99.99,,2013-08-07 23:11:00,
2013-08-07 15:20:00,52.0,51.0,-100.00,SSE,155,7.0,9.0,96,-99.99,,,-99.99,,2013-08-07 23:20:00,
2013-08-07 15:43:00,53.0,51.0,-100.00,SSE,165,6.0,11.0,96,-99.99,,,-99.99,,2013-08-07 23:43:00,
2013-08-07 15:52:00,52.0,51.0,-100.00,SSE,155,7.0,9.0,96,-99.99,,,-99.99,,2013-08-07 23:52:00,
2013-08-07 16:01:00,52.0,51.0,-100.00,SSE,155,7.0,9.0,96,-99.99,,,-99.99,,2013-08-08 00:01:00,
2013-08-07 16:11:00,52.0,51.0,-100.00,SSE,155,7.0,9.0,96,-99.99,,,-99.99,,2013-08-08 00:11:00,
2013-08-07 16:42:00,53.0,52.0,-100.00,SSE,155,10.0,12.0,96,-99.99,,,-99.99,,2013-08-08 00:42:00,
2013-08-07 17:02:00,52.0,51.0,-100.00,SSE,160,12.0,14.0,96,-99.99,,,-99.99,,2013-08-08 01:02:00,
2013-08-07 17:11:00,52.0,51.0,-100.00,SSE,160,12.0,14.0,96,-99.99,,,-99.99,,2013-08-08 01:11:00,
2013-08-07 17:20:00,51.0,50.0,-100.00,SE,140,6.0,12.0,97,-99.99,,,-99.99,,2013-08-08 01:20:00,
2013-08-07 17:32:00,51.0,50.0,-100.00,SE,145,8.0,14.0,97,-99.99,,,-99.99,,2013-08-08 01:32:00,
2013-08-07 17:43:00,51.0,50.0,-100.00,SE,145,8.0,14.0,97,-99.99,,,-99.99,,2013-08-08 01:43:00,
2013-08-07 17:52:00,51.0,50.0,-100.00,SE,140,6.0,12.0,97,-99.99,,,-99.99,,2013-08-08 01:52:00,
2013-08-07 18:02:00,51.0,50.0,-100.00,SE,140,6.0,12.0,97,-99.99,,,-99.99,,2013-08-08 02:02:00,
2013-08-07 18:11:00,51.0,50.0,-100.00,SE,140,6.0,12.0,97,-99.99,,,-99.99,,2013-08-08 02:11:00,
2013-08-07 18:32:00,52.0,51.0,-100.00,SSE,150,6.0,11.0,96,-99.99,,,-99.99,,2013-08-08 02:32:00,
2013-08-07 18:42:00,52.0,51.0,-100.00,SSE,150,6.0,11.0,96,-99.99,,,-99.99,,2013-08-08 02:42:00,
2013-08-07 18:52:00,52.0,51.0,-100.00,SSE,160,10.0,14.0,96,-99.99,,,-99.99,,2013-08-08 02:52:00,
2013-08-07 19:01:00,52.0,51.0,-100.00,SSE,160,10.0,14.0,96,-99.99,,,-99.99,,2013-08-08 03:01:00,
2013-08-07 19:12:00,52.0,51.0,-100.00,SSE,160,10.0,14.0,96,-99.99,,,-99.99,,2013-08-08 03:12:00,
2013-08-07 19:32:00,52.0,51.0,-100.00,SSE,165,12.0,16.0,94,-99.99,,,-99.99,,2013-08-08 03:32:00,
2013-08-07 19:43:00,52.0,51.0,-100.00,SSE,165,12.0,16.0,94,-99.99,,,-99.99,,2013-08-08 03:43:00,
2013-08-07 19:52:00,51.0,50.0,-100.00,SSE,160,16.0,18.0,93,-99.99,,,-99.99,,2013-08-08 03:52:00,
2013-08-07 20:01:00,51.0,50.0,-100.00,SSE,160,16.0,18.0,93,-99.99,,,-99.99,,2013-08-08 04:01:00,
2013-08-07 20:11:00,51.0,50.0,-100.00,SSE,160,16.0,18.0,93,-99.99,,,-99.99,,2013-08-08 04:11:00,
2013-08-07 20:33:00,51.0,50.0,-100.00,SSE,160,13.0,16.0,94,-99.99,,,-99.99,,2013-08-08 04:33:00,
2013-08-07 20:43:00,51.0,50.0,-100.00,SSE,160,13.0,16.0,94,-99.99,,,-99.99,,2013-08-08 04:43:00,
2013-08-07 20:53:00,51.0,49.0,-100.00,SSE,160,16.0,21.0,95,-99.99,,,-99.99,,2013-08-08 04:53:00,
2013-08-07 21:02:00,51.0,49.0,-100.00,SSE,160,16.0,21.0,95,-99.99,,,-99.99,,2013-08-08 05:02:00,
2013-08-07 21:11:00,51.0,49.0,-100.00,SSE,160,16.0,21.0,95,-99.99,,,-99.99,,2013-08-08 05:11:00,
2013-08-07 21:20:00,50.0,49.0,-100.00,SSE,165,15.0,19.0,96,-99.99,,,-99.99,,2013-08-08 05:20:00,
2013-08-07 21:33:00,50.0,49.0,-100.00,SSE,160,17.0,22.0,96,-99.99,,,-99.99,,2013-08-08 05:33:00,
2013-08-07 21:43:00,50.0,49.0,-100.00,SSE,160,17.0,22.0,96,-99.99,,,-99.99,,2013-08-08 05:43:00,
2013-08-07 22:01:00,50.0,49.0,-100.00,SSE,165,15.0,19.0,96,-99.99,,,-99.99,,2013-08-08 06:01:00,
2013-08-07 22:11:00,50.0,49.0,-100.00,SSE,165,15.0,19.0,96,-99.99,,,-99.99,,2013-08-08 06:11:00,
2013-08-07 22:20:00,49.0,48.0,-100.00,SSE,165,11.0,14.0,97,-99.99,,,-99.99,,2013-08-08 06:20:00,
2013-08-07 22:32:00,50.0,49.0,-100.00,SSE,160,14.0,17.0,96,-99.99,,,-99.99,,2013-08-08 06:32:00,
2013-08-07 22:43:00,50.0,49.0,-100.00,SSE,160,14.0,17.0,96,-99.99,,,-99.99,,2013-08-08 06:43:00,
2013-08-07 23:01:00,49.0,48.0,-100.00,SSE,165,11.0,14.0,97,-99.99,,,-99.99,,2013-08-08 07:01:00,
2013-08-07 23:12:00,49.0,48.0,-100.00,SSE,165,11.0,14.0,97,-99.99,,,-99.99,,2013-08-08 07:12:00,
2013-08-07 23:43:00,48.0,48.0,-100.00,South,175,11.0,13.0,97,-99.99,,,-99.99,,2013-08-08 07:43:00,